• Processing (Info)

  • MPEC 2019-U106 : 2019 UK3

    The following Minor Planet Electronic Circular may be linked-to from your own Web pages, but must not otherwise be redistributed electronically.

    A form allowing access to any MPEC is at the bottom of this page.


    Read MPEC 2019-U105 Read MPEC 2019-U107


    M.P.E.C. 2019-U106                             Issued 2019 October 23, 02:53 UT
    
         The Minor Planet Electronic Circulars contain information on unusual
             minor planets and routine data on comets.  They are published
        on behalf of Division F of the International Astronomical Union by the
              Minor Planet Center, Smithsonian Astrophysical Observatory,
                              Cambridge, MA 02138, U.S.A.
    
                 Prepared using the Tamkin Foundation Computer Network
    
                                  MPC@CFA.HARVARD.EDU
                URL https://www.minorplanetcenter.net/    ISSN 1523-6714
    
                                    2019 UK3                                 
    
    
    Observations:
         K19U03K* C2019 10 22.17781 23 36 12.68 +29 47 02.9          20.1 GVEU106G96
         K19U03K  C2019 10 22.18347 23 36 23.10 +29 47 06.3          19.8 GVEU106G96
         K19U03K  C2019 10 22.19477 23 36 43.92 +29 47 13.5          20.8 GVEU106G96
         K19U03K  C2019 10 22.32125 23 40 36.76 +29 47 27.7          19.3 GVEU106I52
         K19U03K  C2019 10 22.32215 23 40 38.36 +29 47 26.9          19.6 GVEU106I52
         K19U03K  C2019 10 22.32305 23 40 40.11 +29 47 26.6          20.2 GVEU106I52
         K19U03K KC2019 10 22.82083 23 57 00.83 +29 44 31.1          20.4 GVEU106K87
         K19U03K KC2019 10 22.82258 23 57 04.01 +29 44 30.3          20.6 GVEU106K87
         K19U03K KC2019 10 22.82443 23 57 07.29 +29 44 29.1          19.8 GVEU106K87
         K19U03K IC2019 10 22.85951823 58 09.53 +29 44 37.1          19.9 GVEU106L01
         K19U03K KC2019 10 22.86093523 58 12.04 +29 44 36.1          20.0 GVEU106L01
         K19U03K KC2019 10 22.86218623 58 14.30 +29 44 35.2          20.1 GVEU106L01
         K19U03K KC2019 10 22.86344023 58 16.52 +29 44 34.4          20.0 GVEU106L01
         K19U03K KC2019 10 22.86427623 58 18.02 +29 44 33.6          20.2 GVEU106L01
         K19U03K KC2019 10 22.89111 23 59 06.77 +29 44 20.8          20.1 GVEU106104
         K19U03K KC2019 10 22.90606 23 59 33.31 +29 44 08.5          19.8 GVEU106104
         K19U03K KC2019 10 22.91203 23 59 43.94 +29 44 02.7          20.0 GVEU106104
         K19U03K KC2019 10 22.91393423 59 51.07 +29 43 23.2          19.7 GVEU106J95
         K19U03K KC2019 10 22.92291000 00 07.12 +29 43 15.9          20.1 GVEU106J95
         K19U03K KC2019 10 22.92780000 00 15.86 +29 43 11.6          19.8 GVEU106J95
         K19U03K KC2019 10 22.96267 00 01 11.55 +29 43 27.5          19.9 GVEU106K96
         K19U03K KC2019 10 22.96384 00 01 13.67 +29 43 25.9          19.7 GVEU106K96
         K19U03K KC2019 10 22.97220 00 01 28.57 +29 43 13.5          19.2 GVEU106K96
    
    Observer details:
    104 San Marcello Pistoiese.  Observers P. Bacci, M. Maestripieri.  Measurers P. 
       Bacci, L. Tesi, G. Fagioli.  0.60-m reflector + CCD.
    G96 Mt. Lemmon Survey.  Observer D. C. Fuls.  Measurers E. J. Christensen, G. 
       A. Farneth, D. C. Fuls, A. R. Gibbs, A. D. Grauer, H. Groeller, R. A. 
       Kowalski, S. M. Larson, G. J. Leonard, T. A. Pruyne, D. Rankin, R. L. Seaman,
        F. C. Shelly, K. W. Wierzchos.  1.5-m reflector + 10K CCD.
    I52 Steward Observatory, Mt. Lemmon Station.  Observer H. Groeller.  Measurers 
       E. J. Christensen, G. A. Farneth, D. C. Fuls, A. R. Gibbs, A. D. Grauer, H. 
       Groeller, R. A. Kowalski, S. M. Larson, G. J. Leonard, T. A. Pruyne, D. 
       Rankin, R. L. Seaman, F. C. Shelly, K. W. Wierzchos.  1.0-m reflector + CCD.
    J95 Great Shefford.  Observer P. Birtwhistle.  0.41-m f/6.3 Schmidt-Cassegrain 
       + CCD.
    K87 Dettelbach Vineyard Observatory.  Observer B. Haeusler.  0.3-m f/5.7 
       Schmidt-Cassegrain + CCD.
    K96 Savelli Observatory.  Observers A. Brosio, A. De Pieri.  0.5-m f/8.0 
       Ritchey-Chretien + CCD.
    L01 Visnjan Observatory, Tican.  Observer K. Korlevic.  1.0-m f/2.9 reflector + 
       CCD.
    
    Orbital elements:
    2019 UK3                                                 Earth MOID = 0.0210 AU
    Epoch 2019 Apr. 27.0 TT = JDT 2458600.5                 Bell
    M 276.58062              (2000.0)            P               Q
    n   0.52227396     Peri.  143.91632     +0.99237584     -0.11864657
    a   1.5271105      Node   222.93580     +0.09846215     +0.92602286
    e   0.3452418      Incl.    2.80750     +0.07413096     +0.35833595
    P   1.89           H   26.7           G   0.15           U   6
    Residuals in seconds of arc
    191022 G96  0.2-  0.1+    191022 K87  0.1-  0.4-    191022 104  0.3+  0.2-
    191022 G96  0.2-  0.3-    191022 L01  0.4-  0.1+    191022 J95  0.1+  0.1+
    191022 G96  0.4+  0.2+    191022 L01  0.6-  0.0     191022 J95  0.0   0.1+
    191022 I52  0.3+  0.4+    191022 L01  0.3-  0.1-    191022 J95  0.0   0.1-
    191022 I52  0.6-  0.1-    191022 L01  0.5-  0.0     191022 K96  0.4-  0.4+
    191022 I52  0.4+  0.2-    191022 L01  0.4-  0.3-    191022 K96  0.1+  0.3+
    191022 K87  0.4+  0.1+    191022 104  0.3+  0.1-    191022 K96  0.2+  0.9-
    191022 K87  0.7+  0.0     191022 104  0.0   0.2+
    
    Ephemeris:
    2019 UK3                 a,e,i = 1.53, 0.35, 3                   q = 0.9999
    Date    TT    R. A. (2000) Decl.     Delta      r    Elong.  Phase     V
    2019 09 23    17 52 35.7 +00 26 03   0.09087 1.0057    88.7    86.1    24.5
    ...
    2019 10 08    18 49 54.0 +08 33 48   0.04871 1.0008    90.3    86.9    23.2
    ...
    2019 10 16    20 32 42.2 +20 42 56   0.03003 1.0075   109.6    68.8    21.5
    ...
    2019 10 22    23 30 15.0 +29 45 17   0.02631 1.0167   143.5    35.6    20.3
    2019 10 23    00 02 30.9 +29 44 07   0.02713 1.0186   149.2    30.0    20.2
    2019 10 24    00 32 23.0 +29 16 02   0.02834 1.0205   154.4    25.0    20.2
    ...
    2019 10 30    02 28 53.8 +23 07 48   0.04137 1.0340   169.8     9.8    20.5
    ...
    2019 11 07    03 27 16.1 +17 15 19   0.06640 1.0566   170.1     9.3    21.5
    ...
    2019 11 22    03 59 14.8 +13 08 22   0.1241  1.1110   172.6     6.5    22.9
    
    A. U. Tomatic                (C) Copyright 2019 MPC           M.P.E.C. 2019-U106
    


    Read MPEC 2019-U105 Read MPEC 2019-U107


    MPEC number:

    Enter an MPEC number in one of the following forms:

    • 1997-B01 (the full form)
    • J97B01 (the packed version of the full form)
    • B01 (the abbreviated form)